Hartford, CT

8:55 AM EDT on October 21, 2017 (GMT -0400)
Hartford-brainard

Weather History for KHFD - May, 2014

Change the Weather History Date:

Friday, May 9, 2014

  Actual Average Record
Temperature  
Mean Temperature 58 °F -  
Max Temperature 61 °F 64 °F 93 °F (2000)
Min Temperature 54 °F 43 °F 31 °F (1956)
Degree Days  
Heating Degree Days 8    
Growing Degree Days 8 (Base 50)    
Moisture  
Dew Point 55 °F    
Average Humidity 92    
Maximum Humidity 100    
Minimum Humidity 81    
Precipitation  
Precipitation 0.09 in - - ()
Sea Level Pressure  
Sea Level Pressure 30.16 in    
Wind  
Wind Speed 3 mph (SSE)    
Max Wind Speed 8 mph    
Max Gust Speed -    
Visibility 6 miles    
Events Rain    
Averages and records for this station are not official NWS values.
T = Trace of Precipitation, MM = Missing Value Source: NWS Daily Summary

Daily Weather History Graph

Daily Weather History Graph

Search for Another Location

Airport or City:

Trip Planner

Search our weather history database for the weather conditions in past years. The results will help you decide how hot, cold, wet, or windy it might be!

Date:

Astronomy

May. 09, 2014 Rise Set
Actual Time 5:37 AM EDT 7:57 PM EDT
Civil Twilight 5:06 AM EDT 8:28 PM EDT
Nautical Twilight 4:27 AM EDT 9:07 PM EDT
Astronomical Twilight 3:45 AM EDT 9:50 PM EDT
Moon 2:47 PM EDT (5/9) 2:42 AM EDT (5/9)
Length of Visible Light 15h 22m
Length of Day
14h 20m
Waxing Gibbous, 73% of the Moon is Illuminated
May 9
Waxing Gibbous
May 14
Full
May 21
Last Quarter
May 28
New
Jun 5
First Quarter

Hourly Weather History & Observations

Time (EDT) Temp. Dew Point Humidity Pressure Visibility Wind Dir Wind Speed Gust Speed Precip Events Conditions
12:53 AM 55.0 °F 53.1 °F 93% 30.15 in 6.0 mi East 6.9 mph - N/A   Overcast
1:07 AM 55.0 °F 53.1 °F 93% 30.17 in 10.0 mi Calm Calm - N/A   Overcast
1:53 AM 55.0 °F 53.1 °F 93% 30.16 in 10.0 mi SSE 3.5 mph - N/A   Overcast
2:10 AM 55.0 °F 53.1 °F 93% 30.17 in 10.0 mi WSW 4.6 mph - N/A   Overcast
2:28 AM 55.0 °F 53.1 °F 93% 30.18 in 9.0 mi WSW 4.6 mph - N/A   Overcast
2:53 AM 55.0 °F 53.1 °F 93% 30.18 in 7.0 mi Calm Calm - N/A   Overcast
3:49 AM 55.4 °F 53.6 °F 94% 30.16 in 4.0 mi Calm Calm - N/A   Overcast
3:53 AM 55.0 °F 53.1 °F 93% 30.15 in 4.0 mi Calm Calm - N/A   Overcast
4:06 AM 55.0 °F 54.0 °F 96% 30.16 in 2.5 mi Calm Calm - N/A   Overcast
4:22 AM 55.0 °F 54.0 °F 96% 30.16 in 3.0 mi Calm Calm - N/A   Overcast
4:31 AM 55.0 °F 54.0 °F 96% 30.15 in 2.0 mi Calm Calm - N/A   Overcast
4:35 AM 55.0 °F 54.0 °F 96% 30.15 in 1.8 mi Calm Calm - N/A   Overcast
5:10 AM 54.0 °F 54.0 °F 100% 30.14 in 1.2 mi Calm Calm - N/A   Overcast
5:53 AM 55.0 °F 54.0 °F 96% 30.16 in 1.2 mi ENE 3.5 mph - 0.00 in Rain Light Rain
6:35 AM 55.0 °F 54.0 °F 96% 30.19 in 2.0 mi NE 6.9 mph - 0.03 in Rain Light Rain
6:43 AM 55.0 °F 54.0 °F 96% 30.20 in 1.2 mi North 3.5 mph - 0.06 in Rain Rain
6:53 AM 55.0 °F 54.0 °F 96% 30.20 in 1.5 mi North 3.5 mph - 0.09 in Rain Rain
7:00 AM 55.0 °F 54.0 °F 96% 30.19 in 3.0 mi Calm Calm - 0.01 in Rain Light Rain
7:07 AM 55.0 °F 54.0 °F 96% 30.19 in 3.0 mi Calm Calm - 0.01 in Rain Light Rain
7:38 AM 55.9 °F 54.0 °F 93% 30.19 in 5.0 mi Calm Calm - 0.02 in   Overcast
8:06 AM 55.9 °F 54.0 °F 93% 30.19 in 4.0 mi Calm Calm - N/A   Overcast
8:21 AM 55.9 °F 55.0 °F 97% 30.20 in 4.0 mi Calm Calm - N/A   Overcast
8:53 AM 55.9 °F 55.0 °F 97% 30.20 in 7.0 mi ENE 3.5 mph - N/A   Overcast
9:17 AM 57.9 °F 55.0 °F 90% 30.20 in 6.0 mi Calm Calm - N/A   Overcast
9:53 AM 57.9 °F 55.0 °F 90% 30.20 in 10.0 mi Calm Calm - N/A   Overcast
10:53 AM 57.9 °F 55.9 °F 93% 30.19 in 10.0 mi SSE 4.6 mph - N/A   Overcast
11:53 AM 59.0 °F 55.9 °F 90% 30.19 in 10.0 mi Calm Calm - N/A   Overcast
12:53 PM 57.9 °F 55.9 °F 93% 30.19 in 7.0 mi SSE 5.8 mph - N/A   Overcast
1:53 PM 59.0 °F 55.0 °F 87% 30.18 in 10.0 mi South 8.1 mph - N/A   Overcast
2:53 PM 59.0 °F 55.0 °F 87% 30.16 in 10.0 mi SSE 5.8 mph - N/A   Overcast
3:53 PM 60.1 °F 55.0 °F 83% 30.14 in 10.0 mi South 4.6 mph - N/A   Overcast
4:53 PM 60.1 °F 55.9 °F 86% 30.12 in 7.0 mi South 5.8 mph - N/A   Overcast
5:53 PM 61.0 °F 55.0 °F 81% 30.11 in 10.0 mi South 5.8 mph - N/A   Overcast
6:53 PM 61.0 °F 55.0 °F 81% 30.12 in 10.0 mi SSE 6.9 mph - N/A   Overcast
7:53 PM 61.0 °F 55.0 °F 81% 30.10 in 10.0 mi SSE 8.1 mph - N/A   Overcast
8:28 PM 60.1 °F 55.0 °F 83% 30.10 in 10.0 mi South 5.8 mph - N/A   Overcast
8:53 PM 60.1 °F 55.9 °F 86% 30.09 in 10.0 mi South 6.9 mph - N/A   Overcast
9:53 PM 60.1 °F 55.9 °F 86% 30.07 in 10.0 mi South 4.6 mph - N/A   Overcast
11:53 PM 60.1 °F 57.9 °F 93% 30.05 in 4.0 mi South 4.6 mph - 0.00 in Rain Light Rain